Previsão horária em Abhar

Hoje, 19 Janeiro, Terça-feira

Tempo Temperatura Precipitação Vento Pressão Humidade
00:00 -2°C° 0 mm 8 m/s 617 mmHg 77%
01:00 -2°C° 0 mm 8 m/s 617 mmHg 77%
02:00 -3°C° 0 mm 7 m/s 617 mmHg 77%
03:00 -3°C° 0 mm 7 m/s 617 mmHg 78%
04:00 -3°C° 0 mm 6 m/s 617 mmHg 78%
05:00 -2°C° 0 mm 5 m/s 618 mmHg 78%
06:00 -4°C° 0 mm 5 m/s 618 mmHg 79%
07:00 -2°C° 0 mm 5 m/s 618 mmHg 75%
08:00 -1°C° 0 mm 4 m/s 618 mmHg 71%
09:00 0°C° 0 mm 4 m/s 618 mmHg 67%
10:00 +1°C° 0 mm 4 m/s 618 mmHg 63%
11:00 +2°C° 0 mm 5 m/s 618 mmHg 59%
12:00 +3°C° 0 mm 5 m/s 618 mmHg 56%
13:00 +3°C° 0 mm 5 m/s 618 mmHg 54%
14:00 +3°C° 0 mm 5 m/s 617 mmHg 53%
15:00 +3°C° 0 mm 6 m/s 617 mmHg 51%
16:00 +2°C° 0 mm 5 m/s 617 mmHg 54%
17:00 +1°C° 0 mm 4 m/s 616 mmHg 57%
18:00 +1°C° 0 mm 3 m/s 616 mmHg 60%
19:00 0°C° 0 mm 4 m/s 616 mmHg 61%
20:00 -1°C° 0 mm 4 m/s 616 mmHg 62%
21:00 -1°C° 0 mm 4 m/s 616 mmHg 62%
22:00 -1°C° 0 mm 4 m/s 616 mmHg 64%
23:00 0°C° 0 mm 3 m/s 616 mmHg 65%

Amanhã, 20 Janeiro, Quarta-feira

Tempo Temperatura Precipitação Vento Pressão Humidade
00:00 -1°C° 0 mm 3 m/s 616 mmHg 66%
01:00 -1°C° 0 mm 2 m/s 616 mmHg 66%
02:00 -1°C° 0 mm 2 m/s 616 mmHg 65%
03:00 -2°C° 0 mm 2 m/s 615 mmHg 65%
04:00 -2°C° 0 mm 2 m/s 616 mmHg 64%
05:00 -2°C° 0 mm 2 m/s 616 mmHg 64%
06:00 -2°C° 0 mm 2 m/s 616 mmHg 63%
07:00 -1°C° 0 mm 2 m/s 616 mmHg 58%
08:00 +1°C° 0 mm 2 m/s 616 mmHg 54%
09:00 +2°C° 0 mm 2 m/s 616 mmHg 49%
10:00 +1°C° 0 mm 4 m/s 616 mmHg 46%
11:00 +2°C° 0 mm 5 m/s 616 mmHg 42%
12:00 +4°C° 0 mm 7 m/s 616 mmHg 38%
13:00 +4°C° 0 mm 7 m/s 615 mmHg 38%
14:00 +4°C° 0 mm 7 m/s 615 mmHg 39%
15:00 +4°C° 0 mm 7 m/s 614 mmHg 39%
16:00 +2°C° 0 mm 5 m/s 614 mmHg 42%
17:00 +1°C° 0 mm 4 m/s 613 mmHg 45%
18:00 +1°C° 0 mm 3 m/s 613 mmHg 48%
19:00 +2°C° 0.1 mm 2 m/s 613 mmHg 54%
20:00 +1°C° 0.1 mm 2 m/s 613 mmHg 60%
21:00 +1°C° 0.1 mm 2 m/s 612 mmHg 66%
22:00 +1°C° 0.1 mm 2 m/s 612 mmHg 73%
23:00 -1°C° 0.1 mm 2 m/s 612 mmHg 80%

Depois de amanhã, 21 Janeiro, Quinta-feira

Tempo Temperatura Precipitação Vento Pressão Humidade
00:00 -2°C° 0.1 mm 2 m/s 612 mmHg 87%
01:00 -4°C° 1.3 mm 3 m/s 612 mmHg 87%
02:00 -7°C° 1.3 mm 4 m/s 612 mmHg 88%
03:00 -8°C° 1.3 mm 5 m/s 612 mmHg 89%
04:00 -10°C° 0.6 mm 5 m/s 613 mmHg 89%
05:00 -11°C° 0.6 mm 5 m/s 614 mmHg 89%
06:00 -12°C° 0.6 mm 5 m/s 614 mmHg 88%
07:00 -11°C° 0.2 mm 4 m/s 615 mmHg 87%
08:00 -11°C° 0.2 mm 4 m/s 616 mmHg 85%
09:00 -11°C° 0.2 mm 4 m/s 617 mmHg 83%
10:00 -10°C° 0.1 mm 4 m/s 617 mmHg 81%
11:00 -10°C° 0.1 mm 4 m/s 618 mmHg 79%
12:00 -10°C° 0.1 mm 4 m/s 618 mmHg 77%
13:00 -10°C° 0 mm 4 m/s 618 mmHg 76%
14:00 -10°C° 0 mm 4 m/s 619 mmHg 75%
15:00 -10°C° 0 mm 4 m/s 619 mmHg 74%
16:00 -10°C° 0 mm 3 m/s 619 mmHg 78%
17:00 -12°C° 0 mm 3 m/s 620 mmHg 81%
18:00 -12°C° 0 mm 2 m/s 620 mmHg 85%
19:00 -12°C° 0 mm 2 m/s 621 mmHg 85%
20:00 -13°C° 0 mm 3 m/s 621 mmHg 85%
21:00 -14°C° 0 mm 3 m/s 621 mmHg 85%
22:00 -14°C° 0 mm 3 m/s 622 mmHg 84%
23:00 -14°C° 0 mm 3 m/s 622 mmHg 83%

22 Janeiro, Sexta-feira

Tempo Temperatura Precipitação Vento Pressão Humidade
00:00 -14°C° 0 mm 3 m/s 622 mmHg 83%
01:00 -14°C° 0 mm 3 m/s 622 mmHg 81%
02:00 -15°C° 0 mm 3 m/s 622 mmHg 79%
03:00 -15°C° 0 mm 3 m/s 623 mmHg 77%
04:00 -15°C° 0 mm 3 m/s 623 mmHg 76%
05:00 -15°C° 0 mm 3 m/s 623 mmHg 74%
06:00 -15°C° 0 mm 3 m/s 623 mmHg 72%
07:00 -13°C° 0 mm 2 m/s 624 mmHg 69%
08:00 -12°C° 0 mm 2 m/s 625 mmHg 66%
09:00 -10°C° 0 mm 2 m/s 626 mmHg 63%
10:00 -9°C° 0 mm 2 m/s 626 mmHg 58%
11:00 -7°C° 0 mm 1 m/s 626 mmHg 53%
12:00 -6°C° 0 mm 1 m/s 626 mmHg 48%
13:00 -4°C° 0 mm 1 m/s 626 mmHg 49%
14:00 -4°C° 0 mm 1 m/s 626 mmHg 49%
15:00 -3°C° 0 mm 1 m/s 625 mmHg 50%
16:00 -4°C° 0 mm 1 m/s 625 mmHg 53%
17:00 -7°C° 0 mm 1 m/s 625 mmHg 56%
18:00 -8°C° 0 mm 1 m/s 625 mmHg 60%
19:00 -8°C° 0 mm 1 m/s 625 mmHg 61%
20:00 -9°C° 0 mm 1 m/s 625 mmHg 63%
21:00 -9°C° 0 mm 1 m/s 625 mmHg 65%
22:00 -9°C° 0 mm 1 m/s 625 mmHg 66%
23:00 -9°C° 0 mm 1 m/s 625 mmHg 68%

23 Janeiro, Sábado

Tempo Temperatura Precipitação Vento Pressão Humidade
00:00 -9°C° 0 mm 1 m/s 624 mmHg 69%
01:00 -9°C° 0 mm 1 m/s 624 mmHg 71%
02:00 -10°C° 0 mm 1 m/s 624 mmHg 72%
03:00 -10°C° 0 mm 1 m/s 624 mmHg 74%
04:00 -10°C° 0 mm 1 m/s 624 mmHg 75%
05:00 -10°C° 0 mm 1 m/s 624 mmHg 76%
06:00 -10°C° 0 mm 1 m/s 624 mmHg 77%
07:00 -10°C° 0 mm 2 m/s 624 mmHg 75%
08:00 -9°C° 0 mm 2 m/s 625 mmHg 73%
09:00 -9°C° 0 mm 3 m/s 626 mmHg 70%
10:00 -8°C° 0 mm 3 m/s 625 mmHg 68%
11:00 -8°C° 0 mm 4 m/s 625 mmHg 65%
12:00 -7°C° 0 mm 4 m/s 625 mmHg 63%
13:00 -5°C° 0 mm 4 m/s 624 mmHg 61%
14:00 -5°C° 0 mm 4 m/s 624 mmHg 60%
15:00 -5°C° 0 mm 4 m/s 624 mmHg 59%
16:00 -6°C° 0 mm 3 m/s 624 mmHg 62%
17:00 -7°C° 0 mm 3 m/s 623 mmHg 65%
18:00 -7°C° 0 mm 2 m/s 623 mmHg 69%
19:00 -7°C° 0 mm 2 m/s 623 mmHg 70%
20:00 -7°C° 0 mm 1 m/s 623 mmHg 71%
21:00 -7°C° 0 mm 1 m/s 623 mmHg 72%
22:00 -7°C° 0 mm 1 m/s 622 mmHg 73%
23:00 -8°C° 0 mm 1 m/s 622 mmHg 73%

24 Janeiro, Domingo

Tempo Temperatura Precipitação Vento Pressão Humidade
00:00 -8°C° 0 mm 1 m/s 622 mmHg 74%
01:00 -8°C° 0 mm 1 m/s 622 mmHg 74%
02:00 -8°C° 0 mm 1 m/s 621 mmHg 75%
03:00 -8°C° 0 mm 1 m/s 621 mmHg 75%
04:00 -8°C° 0 mm 1 m/s 621 mmHg 73%
05:00 -8°C° 0 mm 1 m/s 621 mmHg 72%
06:00 -8°C° 0 mm 1 m/s 621 mmHg 70%
07:00 -7°C° 0 mm 1 m/s 622 mmHg 67%
08:00 -6°C° 0 mm 1 m/s 622 mmHg 64%
09:00 -4°C° 0 mm 1 m/s 623 mmHg 61%
10:00 -2°C° 0 mm 1 m/s 623 mmHg 58%
11:00 -3°C° 0 mm 2 m/s 623 mmHg 55%
12:00 -2°C° 0 mm 2 m/s 623 mmHg 52%
13:00 -1°C° 0 mm 2 m/s 622 mmHg 53%
14:00 -1°C° 0 mm 2 m/s 622 mmHg 53%
15:00 +1°C° 0 mm 2 m/s 622 mmHg 53%
16:00 -1°C° 0 mm 2 m/s 622 mmHg 54%
17:00 -1°C° 0 mm 1 m/s 621 mmHg 56%
18:00 -2°C° 0 mm 1 m/s 621 mmHg 57%
19:00 -2°C° 0 mm 1 m/s 621 mmHg 56%
20:00 -4°C° 0 mm 2 m/s 621 mmHg 55%
21:00 -4°C° 0 mm 2 m/s 621 mmHg 54%
22:00 -4°C° 0 mm 2 m/s 621 mmHg 54%
23:00 -4°C° 0 mm 2 m/s 621 mmHg 54%
Mostrar mais